Location: Clanezzo
(45.7500°N, 9.6000°E)
Time: 04:34:20
(UTC+00:00)

Gbstr 26 Del rocket - Pass Details

Date: 03 October 2021
Orbit: 492 x 1263 km, 51.8° (Epoch: 20 October)

Event Time Altitude Azimuth Distance (km) Brightness Sun altitude
Rises 20:37:26 0° 280° (W) 3,978 7.9 -36.9°
Reaches altitude 10° 20:40:10 10° 285° (WNW) 3,096 7.2 -37.2°
Enters shadow 20:47:18 55° 349° (N) 1,470 4.9 -38.2°
